Hourly Data Report for September 15, 2017

All times are specified in Local Standard Time (LST). Add 1 hour to adjust for Daylight Saving Time where and when it is observed.

QUEBEC/JEAN LESAGE INTL
QUEBEC

46°48'13.000" N
71°22'54.000" W
60.00 m
701S001
71714
WQB

Download Data

Hourly Data (September 2017)
Hourly Data Report for September 15, 2017
Temp Definition
°C
Dew Point Temp Definition
°C
Rel Hum Definition
%
Wind Dir Definition
10's deg

Wind Spd Definition
km/h
Visibility Definition
km
Stn Press Definition
kPa
Hmdx Definition


Wind Chill Definition


Weather Definition


TIME
00:00 16.0 7.1 56 7 6   100.80     LegendNANA
01:00 15.2 5.9 54 6 6   100.86     LegendNANA
02:00 14.6 4.9 52 7 9   100.91     LegendNANA
03:00 13.8 6.5 62 6 8   100.95     LegendNANA
04:00 13.3 7.8 69 5 7   101.02     LegendNANA
05:00 13.0 8.2 72 6 7   101.05     LegendNANA
06:00 12.9 8.0 72 7 8   101.14     LegendNANA
07:00 13.9 8.6 70 6 8   101.22     LegendNANA
08:00 15.5 8.7 64 8 13   101.26     LegendNANA
09:00 16.6 7.9 56 8 11   101.29     LegendNANA
10:00 17.7 8.3 54 7 12   101.29     LegendNANA
11:00 18.6 8.7 52 9 13   101.24     LegendNANA
12:00 19.3 9.0 51 8 13   101.22     LegendNANA
13:00 20.9 9.8 49 8 6   101.17     LegendNANA
14:00 21.4 9.9 48 10 7   101.12     LegendNANA
15:00 22.3 10.7 48 6 3   101.08     LegendNANA
16:00 22.5 11.9 51 17 1   101.09 25   LegendNANA
17:00 20.2 15.3 73 15 2   101.11     LegendNANA
18:00 17.2 13.8 81 0 1   101.12     LegendNANA
19:00 16.3 13.1 81 10 3   101.15     LegendNANA
20:00 14.7 13.6 93 35 1   101.16     LegendNANA
21:00 13.8 13.0 95 34 2   101.18     LegendNANA
22:00 12.7 12.1 96 1 2   101.17     LegendNANA
23:00 13.1 12.8 98 35 4   101.15     LegendNANA

Notes on Data Quality.

Legend

  • E = Estimated
  • M = Missing
  • NA = Not Available
  • ‡ = Partner data that is not subject to review by the National Climate Archives
Date modified: